Weather Roundup
Issued by NWS Chicago, IL

Home | Current Version | Previous Version | Graphics & Text | Print | Product List | Glossary On
Versions: 1 2 3 4 5 6 7 8 9 10 11 12 13 14 15 16 17 18 19 20 21 22 23 24 25 26 27 28 29 30 31 32 33 34 35 36 37 38 39 40 41 42 43 44 45 46 47 48 49 50
000
NZUS59 KLOT 020412
HRRLOT

CHICAGO AREA WEATHER ROUNDUP
NATIONAL WEATHER SERVICE CHICAGO/ROMEOVILLE IL
1100 PM CDT WED JUL 01 2015

NOTE: "FAIR" INDICATES FEW OR NO CLOUDS BELOW 12,000 FEET WITH NO
SIGNIFICANT WEATHER AND/OR OBSTRUCTIONS TO VISIBILITY.

* THESE STATIONS ARE NOT UNDER NWS QUALITY CONTROL. THEY ALSO MAY NOT
  REPORT WEATHER SUCH AS PRECIPITATION OR FOG.

ILZ005-006-012>014-019>023-020500-
NORTHEAST ILLINOIS

CITY           SKY/WX    TMP DP  RH WIND       PRES   REMARKS
OHARE          MOCLDY    56  50  80 NE9       30.00S
MIDWAY         CLOUDY    58  51  78 NE9       29.99F
AURORA         MOCLDY    58  50  75 NE7       30.01R
LANSING*       MOCLDY    56  50  79 NE7       29.99F
JOLIET*        MOCLDY    58  54  86 NE6       30.00R
WAUKEGAN       PTCLDY    51  50  96 CALM      30.01S
DUPAGE AIRPORT MOCLDY    55  50  83 NE5       30.00R
WHEELING       PTCLDY    54  50  86 N3        30.02S
KANKAKEE*      MOCLDY    58  54  85 NE7       29.99S
MORRIS*        CLOUDY    58  54  85 CALM      29.97R
LEWIS AIRPORT* MOCLDY    56  50  80 NE7       30.00R
NORTHERLY IS     N/A     56  51  84 N8          N/A
$$

WIZ051-052-058>065-066-070>072-020500-
SOUTHEAST WISCONSIN

CITY           SKY/WX    TMP DP  RH WIND       PRES   REMARKS
MILWAUKEE      PTCLDY    53  49  86 N6        30.03S
KENOSHA*       CLEAR     51  48  89 N5        30.01F
RACINE*        CLEAR     51  48  89 N6        30.03S
BURLINGTON     CLEAR     47  47  97 CALM      30.02S FOG
WAUKESHA       CLEAR     52  48  87 E5        30.03F
WEST BEND      CLEAR     50  48  93 CALM      30.03F FOG
$$

INZ001>003-010>013-019-020-020500-
NORTHWEST INDIANA

CITY           SKY/WX    TMP DP  RH WIND       PRES   REMARKS
GARY*          MOCLDY    58  54  87 N6        30.00F
MICHIGAN CITY* NOT AVBL
RENSSELAER*    NOT AVBL
VALPARAISO     CLOUDY    57  54  89 NE3       30.00S
$$

LMZ740>746-020500-
SOUTHERN LAKE MICHIGAN

STATION/POSITION TIME  SKY/WX   TEMP WIND        PRES    VSBY
                                AIR  DIR/SP/G
                 (UTC)          (F)  (DEG/KT/KT) (MB)    (MI)
HARRISON CRIB    0300            55  360/  9/ 12   N/A
BURNHAM HARBOR   0400            56  360/  7/ 11   N/A
CALUMET HARBOR   0300            56  360/  5/  8   N/A
BURNS HARBOR     0300            58  360/ 10/ 12 1016.3R
MICHIGAN CITY    0300            58  350/ 12/ 14   N/A
$$

ABBREVIATIONS USED IN REMARKS
   TC - TEMPERATURE IN CELSIUS
  WCI - WIND CHILL INDEX
   HX - HEAT INDEX
  VSB - VISIBILITY
$$



USA.gov is the U.S. government's official web portal to all federal, state and local government web resources and services.